This is the latest recevied weather packets stored in our database for station/object N0EDB-13. If no packets are shown the sender has not sent any weather packets the latest 10 day(s).
| Time | Temp. | Humidity | Pressure | Rain* | Wind** | Luminosity | Snow |
|---|---|---|---|---|---|---|---|
| 1777700789 | 8.33° C | 39% | 1515.5 hPa | 0 mm | - | 0 W/m² | - |
| 1777700488 | 8.33° C | 38% | 1515.1 hPa | 0 mm | - | 0 W/m² | - |
| 1777700187 | 8.33° C | 36% | 1515.2 hPa | 0 mm | - | 0 W/m² | - |
| 1777699886 | 8.33° C | 36% | 1515.9 hPa | 0 mm | - | 0 W/m² | - |
| 1777699586 | 7.78° C | 38% | 1516.4 hPa | 0 mm | - | 0 W/m² | - |
| 1777699285 | 7.78° C | 38% | 1516.2 hPa | 0 mm | - | 0 W/m² | - |
| 1777698984 | 8.33° C | 37% | 1515.8 hPa | 0 mm | - | 0 W/m² | - |
| 1777698683 | 8.33° C | 37% | 1515.5 hPa | 0 mm | - | 0 W/m² | - |
| 1777698382 | 8.33° C | 37% | 1515.6 hPa | 0 mm | - | 0 W/m² | - |
| 1777698081 | 8.33° C | 38% | 1515.7 hPa | 0 mm | - | 0 W/m² | - |
| 1777697781 | 8.33° C | 39% | 1515.7 hPa | 0 mm | - | 0 W/m² | - |
| 1777697479 | 7.78° C | 41% | 1515.9 hPa | 0 mm | - | 0 W/m² | - |
| 1777697179 | 7.78° C | 48% | 1516.7 hPa | 0 mm | - | 0 W/m² | - |
| 1777696878 | 7.78° C | 44% | 1517.2 hPa | 0 mm | - | 0 W/m² | - |
| 1777696578 | 7.78° C | 43% | 1516.7 hPa | 0 mm | - | 0 W/m² | - |
| 1777696278 | 7.78° C | 40% | 1516.6 hPa | 0 mm | - | 0 W/m² | - |
| 1777695977 | 7.78° C | 41% | 1517.3 hPa | 0 mm | - | 0 W/m² | - |
| 1777695676 | 7.22° C | 40% | 1518 hPa | 0 mm | - | 0 W/m² | - |
| 1777695376 | 7.22° C | 50% | 1518.2 hPa | 0 mm | - | 0 W/m² | - |
| 1777695075 | 7.22° C | 47% | 1517.6 hPa | 0 mm | - | 0 W/m² | - |
| 1777694775 | 7.78° C | 48% | 1517.2 hPa | 0 mm | - | 0 W/m² | - |
| 1777694474 | 7.78° C | 38% | 1516.4 hPa | 0 mm | - | 0 W/m² | - |
| 1777694173 | 7.78° C | 38% | 1516.1 hPa | 0 mm | - | 0 W/m² | - |
| 1777693873 | 7.78° C | 38% | 1516 hPa | 0 mm | - | 0 W/m² | - |
| 1777693572 | 7.78° C | 40% | 1515.5 hPa | 0 mm | - | 0 W/m² | - |
* Rain latest hour (hover to see other rain measurements)
** Current wind speed in m/s (hover to see current wind gust speed)